Minneapolis Flying Cloud, MN

1:23 PM CST on December 07, 2019 (GMT -0600)
Flying Cloud

Weather History for KFCM - November, 2019

Change the Weather History Date:

Saturday, November 16, 2019

  Actual Average Record
Temperature  
Mean Temperature 40 °F -  
Max Temperature 46 °F 40 °F 66 °F (2001)
Min Temperature 33 °F 27 °F 3 °F (1997)
Degree Days  
Heating Degree Days 26    
Moisture  
Dew Point 29 °F    
Average Humidity 69    
Maximum Humidity 79    
Minimum Humidity 50    
Precipitation  
Precipitation 0.00 in - - ()
Sea Level Pressure  
Sea Level Pressure 30.12 in    
Wind  
Wind Speed 11 mph (SSE)    
Max Wind Speed 18 mph    
Max Gust Speed 29 mph    
Visibility 8 miles    
Events      
Averages and records for this station are not official NWS values.
T = Trace of Precipitation, MM = Missing Value Source: NWS Daily Summary

Daily Weather History Graph

Daily Weather History Graph

Search for Another Location

Airport or City:

Astronomy

Nov. 16, 2019 Rise Set
Actual Time 7:12 AM CST 4:44 PM CST
Civil Twilight 6:40 AM CST 5:16 PM CST
Nautical Twilight 6:04 AM CST 5:51 PM CST
Astronomical Twilight 5:30 AM CST 6:26 PM CST
Moon 8:13 PM CST (11/16) 11:11 AM CST (11/16)
Length of Visible Light 10h 35m
Length of Day
9h 32m
Waning Gibbous, 82% of the Moon is Illuminated
Nov 16
Waning Gibbous
Nov 19
Last Quarter
Nov 26
New
Dec 4
First Quarter
Dec 11
Full

Hourly Weather History & Observations

Time (CST) Temp. Windchill Dew Point Humidity Pressure Visibility Wind Dir Wind Speed Gust Speed Precip Events Conditions
12:53 AM 34.0 °F 28.0 °F 28.0 °F 79% 30.27 in 8.0 mi ESE 6.9 mph - N/A   Clear
1:53 AM 34.0 °F 26.0 °F 28.0 °F 79% 30.25 in 8.0 mi SE 10.4 mph - N/A   Clear
2:53 AM 34.0 °F 25.5 °F 28.0 °F 79% 30.24 in 7.0 mi SE 11.5 mph - N/A   Partly Cloudy
3:53 AM 34.0 °F 25.5 °F 28.0 °F 79% 30.21 in 7.0 mi SE 11.5 mph - N/A   Clear
4:53 AM 33.1 °F 23.9 °F 27.0 °F 78% 30.20 in 7.0 mi SE 12.7 mph - N/A   Clear
5:53 AM 33.1 °F 24.4 °F 27.0 °F 78% 30.21 in 7.0 mi SE 11.5 mph - N/A   Clear
6:53 AM 33.1 °F 24.9 °F 27.0 °F 78% 30.20 in 7.0 mi SE 10.4 mph - N/A   Clear
7:53 AM 34.0 °F 25.5 °F 28.0 °F 79% 30.20 in 6.0 mi SE 11.5 mph - N/A   Haze
8:53 AM 37.9 °F 29.2 °F 28.0 °F 68% 30.18 in 8.0 mi SSE 15.0 mph - N/A   Clear
9:53 AM 39.0 °F 31.4 °F 28.0 °F 65% 30.17 in 9.0 mi SSE 12.7 mph - N/A   Clear
10:53 AM 43.0 °F 34.8 °F 28.0 °F 56% 30.14 in 10.0 mi South 18.4 mph - N/A   Clear
11:53 AM 44.1 °F 36.2 °F 28.0 °F 53% 30.11 in 10.0 mi South 18.4 mph 28.8 mph N/A   Clear
12:53 PM 46.9 °F - 28.9 °F 50% 30.08 in 10.0 mi South 18.4 mph 27.6 mph N/A   Clear
1:53 PM 46.0 °F 39.0 °F 28.0 °F 50% 30.04 in 10.0 mi South 17.3 mph 28.8 mph N/A   Clear
3:53 PM 44.1 °F 38.1 °F 30.0 °F 58% 30.01 in 9.0 mi SSE 11.5 mph 25.3 mph N/A   Clear
4:53 PM 43.0 °F 36.8 °F 30.9 °F 62% 30.02 in 8.0 mi SSE 11.5 mph - N/A   Partly Cloudy
5:53 PM 41.0 °F 34.3 °F 30.9 °F 67% 30.04 in 9.0 mi South 11.5 mph - N/A   Clear
6:53 PM 39.0 °F 32.8 °F 30.9 °F 73% 30.04 in 8.0 mi SSE 9.2 mph - N/A   Clear
7:53 PM 39.0 °F 31.8 °F 30.9 °F 73% 30.03 in 7.0 mi SSE 11.5 mph - N/A   Clear
8:53 PM 37.9 °F 30.5 °F 30.9 °F 76% 30.02 in 10.0 mi South 11.5 mph - N/A   Partly Cloudy
10:53 PM 39.0 °F 31.8 °F 30.9 °F 73% 29.98 in 6.0 mi South 11.5 mph - N/A   Haze
11:53 PM 39.0 °F 33.4 °F 32.0 °F 76% 29.97 in 6.0 mi South 8.1 mph - N/A   Haze